STARLINK-36831

Last updated on Sun Mar 22 2026 00:02:05 GMT+0000 (Coordinated Universal Time)

1 67864U 26034Q 26080.47994207 .00284984 00000+0 13952-2 0 9990 2 67864 53.1584 152.1452 0002081 65.7642 294.3598 15.80951416 5803
UTC large
Height (km)
Speed (km/s)
/
Latitude / Longitude
Inclination (degrees)
Orbital Period (minutes)
Azimuth
Elevation
Range (km)
Doppler Factor

Next 0 passes for location: London (51.5072 / 0.1276)

Sorry there are no passes over London.